Location: Newark
(10.0000°N, 11.0000°W)
Time: 12:05:58
(UTC+00:00)

Envisat - Visible Passes

Search period start: 12 December 2019 00:00
Search period end: 22 December 2019 00:00
Orbit: 764 x 766 km, 98.1° (Epoch: 12 December)

Date Brightness Start Highest point End Pass type
(mag) Time Alt. Az. Time Alt. Az. Time Alt. Az.
12 Dec 4.5 19:33:51 10° SSW 19:38:32 37° W 19:43:12 10° NNW visible
13 Dec 6.0 06:21:44 10° NE 06:25:18 19° E 06:28:52 10° SE visible
13 Dec 2.9 18:56:46 10° SSE 19:01:50 76° ENE 19:06:53 10° N visible
14 Dec 5.8 20:00:34 10° SW 20:03:59 18° W 20:07:25 10° WNW visible
15 Dec 3.9 19:22:21 10° S 19:27:16 51° W 19:32:10 10° NNW visible
16 Dec 6.2 06:11:26 10° ENE 06:14:01 14° E 06:16:37 10° SE visible
16 Dec 3.1 18:45:38 10° SSE 18:50:35 55° ENE 18:55:31 10° N visible
17 Dec 5.3 19:48:37 10° SSW 19:52:43 25° W 19:56:49 10° NW visible
18 Dec 3.3 19:10:57 10° S 19:16:00 71° WSW 19:21:03 10° NNW visible
19 Dec 6.2 20:16:28 10° WSW 20:18:12 12° W 20:19:55 10° W visible
20 Dec 4.8 19:36:55 10° SSW 19:41:27 33° W 19:45:59 10° NW visible
21 Dec 5.9 06:24:23 10° NE 06:28:13 22° E 06:32:03 10° SSE visible
21 Dec 3.0 18:59:40 10° SSE 19:04:45 85° ENE 19:09:49 10° N visible
